Flag for Slovakia Weather past 2 weeks in Košice, Slovakia

Now
23 °F

Clear.


Feels Like: 23 °F
Forecast: 21 / 31 °F
Wind: 1 mph from North

Location: Kosice - Barca

Current Time: Dec 27, 2014 at 10:41:09 PM

Latest Report: Dec 27, 2014 at 10:00 PM


Visibility: 10 mi

Pressure: 29.83 "Hg

Humidity: 80%

Dew point: 18 °F

Location of KošiceLocation

Historic Weather in Košice — Graph

°F

Košice temperature yesterday

Maximum temperature yesterday: 37 °F (at 12:00 PM)
Minimum temperature yesterday: 27 °F (at 3:30 AM)
Average temperature yesterday: 31 °F

Past Weeks' High & Low Weather Summary

 TemperatureHumidityPressure
High54 °F (Dec 23, 12:30 PM)100% (Dec 13, 5:30 AM)30.27 "Hg (Dec 13, 5:30 AM)
Low23 °F (Dec 27, 4:30 PM)46% (Dec 21, 1:00 PM)29.80 "Hg (Dec 17, 2:30 AM)
Average38 °F87%30.02 "Hg
* Reported Dec 12 9:00 PM — Dec 27 9:30 PM, Košice, Weather by CustomWeather, © 2014

Note: Actual official high and low records may vary slightly from our data, if they occured in-between our weather recording intervals... More about our weather records

Advertising

Košice weather history for previous 24 hours

 ConditionsComfort  
Time TempWeatherWind HumidityBarometerVisibility
9:30 PM
Dec 27
23 °FPassing clouds.2 mph80%29.83 "HgN/A
9:00 PM25 °FPassing clouds.2 mph80%29.83 "HgN/A
8:30 PM25 °FPartly cloudy.1 mph80%29.83 "HgN/A
8:00 PM25 °FPassing clouds.3 mph80%29.83 "HgN/A
7:30 PM25 °FPassing clouds.3 mph74%29.83 "HgN/A
7:00 PM25 °FPassing clouds.3 mph80%29.83 "HgN/A
6:30 PM23 °FOvercast.5 mph86%29.83 "HgN/A
6:00 PM25 °FClear.3 mph80%29.86 "Hg10 mi
5:30 PM23 °FClear.2 mph80%29.86 "Hg10 mi
5:00 PM23 °FClear.7 mph80%29.86 "Hg10 mi
4:30 PM23 °FClear.6 mph80%29.86 "Hg10 mi
4:00 PM27 °FClear.6 mph69%29.86 "Hg10 mi
3:30 PM27 °FSunny.5 mph69%29.86 "Hg10 mi
3:00 PM28 °FSunny.6 mph64%29.86 "Hg10 mi
2:30 PM28 °FSunny.5 mph64%29.86 "Hg10 mi
2:00 PM28 °FSunny.7 mph64%29.86 "Hg10 mi
1:30 PM28 °FSunny.8 mph64%29.89 "Hg10 mi
1:00 PM30 °FSunny.9 mph59%29.89 "Hg10 mi
12:30 PM28 °FSunny.10 mph59%29.89 "Hg10 mi
12:00 PM28 °FSunny.12 mph59%29.92 "Hg10 mi
11:30 AM28 °FPassing clouds.12 mph64%29.92 "HgN/A
11:00 AM28 °FPassing clouds.12 mph64%29.95 "HgN/A
10:30 AM28 °FPassing clouds.13 mph64%29.98 "HgN/A
10:00 AM27 °FPassing clouds.16 mph69%29.98 "HgN/A
9:30 AM27 °FPassing clouds.15 mph69%30.01 "HgN/A
9:00 AM27 °FPassing clouds.13 mph69%30.01 "HgN/A
8:30 AM25 °FPassing clouds.13 mph74%30.01 "HgN/A
8:00 AM25 °FSunny.14 mph74%30.01 "Hg10 mi
7:30 AM25 °FSunny.14 mph74%30.01 "Hg10 mi
7:00 AM27 °FClear.14 mph69%30.01 "Hg10 mi
6:30 AM27 °FClear.13 mph74%30.01 "Hg10 mi
6:00 AM27 °FClear.14 mph74%30.01 "Hg10 mi
5:30 AM27 °FClear.14 mph74%30.01 "Hg10 mi
4:30 AM28 °FPassing clouds.14 mph69%30.04 "HgN/A
4:00 AM28 °FPassing clouds.15 mph69%30.04 "HgN/A
3:30 AM28 °FPassing clouds.15 mph69%30.07 "HgN/A
3:00 AM28 °FPassing clouds.16 mph69%30.07 "HgN/A
2:30 AM28 °FPassing clouds.16 mph74%30.07 "HgN/A
2:00 AM28 °FPassing clouds.16 mph74%30.07 "HgN/A
1:30 AM28 °FPassing clouds.16 mph74%30.07 "HgN/A
1:00 AM28 °FPassing clouds.18 mph80%30.07 "HgN/A
12:30 AM30 °FPassing clouds.17 mph75%30.07 "HgN/A
12:00 AM30 °FClear.16 mph75%30.07 "Hg10 mi
11:30 PM
Dec 26
30 °FPassing clouds.14 mph75%30.09 "HgN/A
11:00 PM30 °FPassing clouds.14 mph69%30.09 "HgN/A
10:30 PM32 °FPassing clouds.14 mph64%30.09 "HgN/A
10:00 PM32 °FPassing clouds.14 mph69%30.09 "HgN/A
Weather by CustomWeather, © 2014

See weather overviewHow to use our weather pages